South St. Paul, MN

8:28 AM CDT on May 26, 2017 (GMT -0500)
South Saint Paul Municipal-Fleming

Weather History for KSGS - November, 2013

Change the Weather History Date:

Wednesday, November 6, 2013

  Actual Average (KSTP) Record (KSTP)
Temperature  
Mean Temperature 38 °F -  
Max Temperature 43 °F 45 °F 69 °F (2016)
Min Temperature 33 °F 30 °F 14 °F (2003)
Degree Days  
Heating Degree Days 27    
Moisture  
Dew Point 29 °F    
Average Humidity 74    
Maximum Humidity 97    
Minimum Humidity 43    
Precipitation  
Precipitation 0.00 in - - ()
Sea Level Pressure  
Sea Level Pressure 30.08 in    
Wind  
Wind Speed 9 mph (WNW)    
Max Wind Speed 15 mph    
Max Gust Speed 22 mph    
Visibility 9 miles    
Events Snow    
Averages and records for this station are not official NWS values.
T = Trace of Precipitation, MM = Missing Value Source: NWS Daily Summary

Daily Weather History Graph

Daily Weather History Graph

Search for Another Location

Airport or City:

Trip Planner

Search our weather history database for the weather conditions in past years. The results will help you decide how hot, cold, wet, or windy it might be!

Date:

Astronomy

Nov. 06, 2013 Rise Set
Actual Time 6:57 AM CST 4:53 PM CST
Civil Twilight 6:26 AM CST 5:24 PM CST
Nautical Twilight 5:51 AM CST 5:59 PM CST
Astronomical Twilight 5:17 AM CST 6:33 PM CST
Moon 10:16 AM CST (11/6) 7:55 PM CST (11/6)
Length of Visible Light 10h 57m
Length of Day
9h 55m
Waxing Crescent, 14% of the Moon is Illuminated
Nov 6
Waxing Crescent
Nov 9
First Quarter
Nov 17
Full
Nov 25
Last Quarter
Dec 2
New

Hourly Weather History & Observations

Time (CST) Temp. Windchill Dew Point Humidity Pressure Visibility Wind Dir Wind Speed Gust Speed Precip Events Conditions
12:12 AM 35.1 °F 27.9 °F 34.0 °F 96% 30.01 in 2.5 mi North 9.2 mph - N/A Snow Light Snow
12:32 AM 35.2 °F 27.6 °F 34.0 °F 95% 30.01 in 3.0 mi North 10.4 mph 17.3 mph N/A Snow Light Snow
12:52 AM 35.2 °F 28.1 °F 34.0 °F 95% 30.01 in 3.0 mi North 9.2 mph - N/A Snow Light Snow
1:12 AM 35.4 °F 27.8 °F 34.2 °F 95% 30.01 in 3.0 mi North 10.4 mph - N/A Snow Light Snow
1:32 AM 35.2 °F 26.2 °F 34.2 °F 96% 30.01 in 7.0 mi North 13.8 mph 17.3 mph N/A   Overcast
1:52 AM 35.2 °F 27.6 °F 34.2 °F 96% 30.02 in 10.0 mi North 10.4 mph 16.1 mph N/A   Overcast
2:12 AM 35.2 °F 28.1 °F 34.0 °F 95% 30.02 in 7.0 mi North 9.2 mph 19.6 mph N/A Snow Light Snow
2:32 AM 35.1 °F 26.4 °F 34.0 °F 96% 30.02 in 3.0 mi NNW 12.7 mph 16.1 mph N/A Snow Light Snow
2:52 AM 34.9 °F 26.2 °F 33.8 °F 96% 30.00 in 3.0 mi North 12.7 mph 19.6 mph N/A Snow Light Snow
3:12 AM 34.7 °F 26.9 °F 33.8 °F 97% 30.02 in 10.0 mi North 10.4 mph 18.4 mph N/A   Overcast
3:32 AM 34.7 °F 26.9 °F 33.8 °F 97% 30.03 in 10.0 mi NNW 10.4 mph - N/A   Overcast
3:52 AM 34.7 °F 27.5 °F 33.4 °F 95% 30.03 in 5.0 mi North 9.2 mph 19.6 mph N/A Snow Light Snow
4:12 AM 34.7 °F 25.1 °F 33.4 °F 95% 30.02 in 4.0 mi North 15.0 mph 21.9 mph N/A Snow Light Snow
4:32 AM 34.7 °F 26.9 °F 33.4 °F 95% 30.02 in 7.0 mi North 10.4 mph - N/A Snow Light Snow
4:52 AM 34.2 °F 25.7 °F 33.1 °F 96% 30.02 in 10.0 mi North 11.5 mph - N/A   Overcast
5:12 AM 33.8 °F 25.8 °F 32.9 °F 96% 30.02 in 10.0 mi North 10.4 mph 18.4 mph N/A   Overcast
5:32 AM 34.2 °F 29.0 °F 33.1 °F 96% 30.03 in 10.0 mi North 5.8 mph - N/A   Overcast
5:52 AM 34.2 °F 29.0 °F 33.1 °F 96% 30.02 in 10.0 mi North 5.8 mph - N/A   Mostly Cloudy
6:12 AM 34.0 °F 28.0 °F 32.9 °F 96% 30.02 in 10.0 mi NNW 6.9 mph - N/A   Scattered Clouds
6:32 AM 33.8 °F 27.7 °F 32.4 °F 94% 30.02 in 10.0 mi NNW 6.9 mph - N/A   Scattered Clouds
6:52 AM 33.6 °F 27.5 °F 32.0 °F 94% 30.02 in 10.0 mi NNW 6.9 mph - N/A   Scattered Clouds
7:12 AM 33.8 °F 27.0 °F 32.0 °F 93% 30.03 in 10.0 mi NW 8.1 mph - N/A   Scattered Clouds
7:32 AM 34.3 °F 27.7 °F 32.0 °F 91% 30.04 in 10.0 mi NW 8.1 mph - N/A   Overcast
7:52 AM 34.5 °F 27.9 °F 32.0 °F 90% 30.04 in 10.0 mi NW 8.1 mph - N/A   Overcast
8:12 AM 34.0 °F 27.2 °F 31.5 °F 90% 30.05 in 10.0 mi NW 8.1 mph - N/A   Scattered Clouds
8:32 AM 34.7 °F 27.5 °F 31.5 °F 88% 30.05 in 10.0 mi NW 9.2 mph - N/A   Clear
8:52 AM 34.7 °F 27.5 °F 30.9 °F 86% 30.06 in 10.0 mi NW 9.2 mph - N/A   Clear
9:12 AM 35.1 °F 27.9 °F 31.1 °F 85% 30.06 in 10.0 mi NW 9.2 mph - N/A   Clear
9:32 AM 35.2 °F 27.1 °F 31.1 °F 85% 30.07 in 10.0 mi NW 11.5 mph - N/A   Clear
9:52 AM 35.6 °F 28.6 °F 30.7 °F 82% 30.07 in 10.0 mi NW 9.2 mph - N/A   Clear
10:12 AM 36.3 °F 30.1 °F 29.5 °F 76% 30.07 in 10.0 mi NW 8.1 mph - N/A   Clear
10:32 AM 37.4 °F 31.4 °F 28.6 °F 70% 30.07 in 10.0 mi WNW 8.1 mph - N/A   Clear
10:52 AM 38.3 °F 34.8 °F 27.5 °F 65% 30.08 in 10.0 mi NW 4.6 mph - N/A   Clear
11:12 AM 39.6 °F 34.7 °F 24.1 °F 54% 30.08 in 10.0 mi WNW 6.9 mph - N/A   Clear
11:32 AM 39.9 °F 32.5 °F 21.9 °F 49% 30.09 in 10.0 mi NW 12.7 mph - N/A   Clear
11:52 AM 40.6 °F 34.3 °F 21.7 °F 47% 30.08 in 10.0 mi NNW 10.4 mph - N/A   Clear
12:12 PM 41.0 °F 34.7 °F 19.9 °F 43% 30.08 in 10.0 mi NW 10.4 mph 17.3 mph N/A   Clear
12:32 PM 41.5 °F 35.4 °F 22.5 °F 47% 30.08 in 10.0 mi WNW 10.4 mph - N/A   Clear
12:52 PM 41.7 °F 36.1 °F 22.8 °F 47% 30.08 in 10.0 mi WNW 9.2 mph - N/A   Clear
1:12 PM 41.9 °F 35.9 °F 22.8 °F 47% 30.09 in 10.0 mi NW 10.4 mph - N/A   Clear
1:32 PM 42.6 °F 36.3 °F 23.7 °F 47% 30.09 in 10.0 mi West 11.5 mph - N/A   Clear
1:52 PM 42.6 °F 37.2 °F 23.2 °F 46% 30.09 in 10.0 mi WNW 9.2 mph - N/A   Clear
2:12 PM 43.0 °F 37.7 °F 24.1 °F 47% 30.10 in 10.0 mi WNW 9.2 mph - N/A   Clear
2:32 PM 42.8 °F 37.0 °F 25.7 °F 51% 30.10 in 10.0 mi West 10.4 mph - N/A   Clear
2:52 PM 43.5 °F 37.1 °F 24.8 °F 48% 30.10 in 10.0 mi WNW 12.7 mph - N/A   Mostly Cloudy
3:12 PM 43.7 °F 38.1 °F 24.6 °F 47% 30.10 in 10.0 mi WNW 10.4 mph 17.3 mph N/A   Overcast
3:32 PM 42.8 °F 38.0 °F 24.4 °F 48% 30.11 in 10.0 mi West 8.1 mph - N/A   Overcast
3:52 PM 41.9 °F 35.4 °F 25.0 °F 51% 30.12 in 10.0 mi West 11.5 mph - N/A   Overcast
4:12 PM 41.5 °F 37.8 °F 24.6 °F 51% 30.12 in 10.0 mi WNW 5.8 mph - N/A   Overcast
4:32 PM 41.0 °F 36.4 °F 26.2 °F 56% 30.12 in 10.0 mi WSW 6.9 mph - N/A   Overcast
4:52 PM 39.9 °F 35.8 °F 26.6 °F 59% 30.12 in 10.0 mi WSW 5.8 mph - N/A   Mostly Cloudy
5:12 PM 38.8 °F 33.8 °F 27.5 °F 64% 30.12 in 10.0 mi West 6.9 mph - N/A   Mostly Cloudy
5:32 PM 38.7 °F 34.3 °F 27.7 °F 65% 30.12 in 10.0 mi WSW 5.8 mph - N/A   Overcast
5:52 PM 38.5 °F 32.7 °F 27.7 °F 65% 30.13 in 10.0 mi West 8.1 mph - N/A   Overcast
6:12 PM 37.8 °F 31.8 °F 27.3 °F 66% 30.14 in 10.0 mi West 8.1 mph - N/A   Scattered Clouds
6:32 PM 37.2 °F 31.2 °F 26.6 °F 65% 30.14 in 10.0 mi WSW 8.1 mph - N/A   Scattered Clouds
6:52 PM 36.5 °F 30.3 °F 25.5 °F 64% 30.15 in 10.0 mi West 8.1 mph - N/A   Clear
7:12 PM 36.0 °F 29.6 °F 25.2 °F 65% 30.15 in 10.0 mi West 8.1 mph - N/A   Scattered Clouds
7:32 PM 35.8 °F 29.4 °F 25.7 °F 67% 30.15 in 10.0 mi West 8.1 mph - N/A   Mostly Cloudy
7:52 PM 35.8 °F 30.9 °F 25.7 °F 67% 30.15 in 10.0 mi WSW 5.8 mph - N/A   Mostly Cloudy
8:12 PM 35.8 °F 30.9 °F 25.7 °F 67% 30.15 in 10.0 mi West 5.8 mph - N/A   Overcast
8:32 PM 36.0 °F 31.1 °F 25.7 °F 66% 30.15 in 10.0 mi WSW 5.8 mph - N/A   Overcast
8:52 PM 36.0 °F 33.3 °F 26.1 °F 67% 30.15 in 10.0 mi WSW 3.5 mph - N/A   Overcast
9:12 PM 36.3 °F 31.6 °F 26.2 °F 67% 30.15 in 10.0 mi WSW 5.8 mph - N/A   Overcast
9:32 PM 36.5 °F 31.0 °F 26.6 °F 67% 30.15 in 10.0 mi West 6.9 mph - N/A   Overcast
9:52 PM 36.5 °F 30.3 °F 26.6 °F 67% 30.15 in 10.0 mi WSW 8.1 mph - N/A   Overcast
10:12 PM 36.5 °F 30.3 °F 27.0 °F 68% 30.15 in 10.0 mi West 8.1 mph - N/A   Overcast
10:32 PM 36.1 °F 28.2 °F 26.6 °F 68% 30.16 in 10.0 mi West 11.5 mph 19.6 mph N/A   Overcast
10:52 PM 35.6 °F 27.5 °F 26.8 °F 70% 30.15 in 10.0 mi West 11.5 mph - N/A   Mostly Cloudy
11:12 PM 34.9 °F 27.1 °F 26.8 °F 72% 30.15 in 10.0 mi West 10.4 mph - N/A   Scattered Clouds
11:32 PM 34.7 °F 28.8 °F 27.0 °F 73% 30.15 in 10.0 mi West 6.9 mph - N/A   Scattered Clouds
11:52 PM 34.7 °F 26.9 °F 26.6 °F 72% 30.15 in 10.0 mi West 10.4 mph 16.1 mph N/A   Overcast